User: anonymous   Login
Location: �chenoz-la-M�line
(47.6009°N, 6.1354°E)
Time: 05:01:25
(UTC+00:00)
Language:

SKYMED 2 - Orbit

View from above orbital plane
View from above orbital plane
View from above satellite
View from above satellite

Ground track
Ground track

The orbit data is extracted from the following two-line orbital elements,

1 32376U 07059A   21101.77305855 -.00002562  00000-0 -31557-3 0  9998
2 32376  97.8895 286.6140 0001411  87.3848 272.7580 14.82141292721769
Epoch (UTC): 11 April 2021 18:33:12
Eccentricity: 0.0001411
inclination: 97.8895°
perigee height: 621 km
apogee height: 623 km
right ascension of ascending node: 286.6140°
argument of perigee: 87.3848°
revolutions per day: 14.82141292
mean anomaly at epoch: 272.7580°
orbit number at epoch: 72176

The dashed part of the orbit path shows where the satellite is in the earth's shadow,  

DLR